Pittsfield, IL

3:30 PM CDT on September 28, 2016 (GMT -0500)
Pittsfield Penstone Municipal

Weather History for KPPQ - May, 2014

Change the Weather History Date:

Saturday, May 17, 2014

  Actual Average (KUIN) Record (KUIN)
Temperature  
Mean Temperature 49 °F 63 °F  
Max Temperature 61 °F 73 °F 92 °F (1911)
Min Temperature 37 °F 53 °F 35 °F (2014)
Degree Days  
Heating Degree Days 16 4  
Month to date heating degree days 96  
Since 1 July heating degree days 5526  
Cooling Degree Days 0 2  
Month to date cooling degree days 24  
Year to date cooling degree days 42  
Moisture  
Dew Point 37 °F    
Average Humidity 62    
Maximum Humidity 95    
Minimum Humidity 33    
Precipitation  
Precipitation 0.00 in 0.15 in 2.75 in (1986)
Month to date precipitation 2.38  
Year to date precipitation 11.93  
Sea Level Pressure  
Sea Level Pressure 30.17 in    
Wind  
Wind Speed 2 mph (SW)    
Max Wind Speed 9 mph    
Max Gust Speed -    
Visibility 10 miles    
Events      
T = Trace of Precipitation, MM = Missing Value Source: NWS Daily Summary

Daily Weather History Graph

Daily Weather History Graph

Search for Another Location

Airport or City:

Trip Planner

Search our weather history database for the weather conditions in past years. The results will help you decide how hot, cold, wet, or windy it might be!

Date:

Astronomy

May. 17, 2014 Rise Set
Actual Time 5:47 AM CDT 8:12 PM CDT
Civil Twilight 5:16 AM CDT 8:43 PM CDT
Nautical Twilight 4:38 AM CDT 9:21 PM CDT
Astronomical Twilight 3:56 AM CDT 10:03 PM CDT
Moon 11:13 PM CDT (5/17) 8:30 AM CDT (5/17)
Length of Visible Light 15h 26m
Length of Day
14h 25m
Waning Gibbous, 89% of the Moon is Illuminated
May 17
Waning Gibbous
May 21
Last Quarter
May 28
New
Jun 5
First Quarter
Jun 12
Full

Hourly Weather History & Observations

Time (CDT) Temp. Windchill Dew Point Humidity Pressure Visibility Wind Dir Wind Speed Gust Speed Precip Events Conditions
12:15 AM 44.2 °F - 41.7 °F 91% 30.15 in 10.0 mi Calm Calm - N/A   Mostly Cloudy
12:35 AM 44.1 °F - 41.0 °F 89% 30.15 in 10.0 mi Calm Calm - N/A   Mostly Cloudy
12:55 AM 42.8 °F - 40.3 °F 91% 30.15 in 10.0 mi Calm Calm - N/A   Scattered Clouds
1:15 AM 42.3 °F - 39.9 °F 91% 30.14 in 10.0 mi Calm Calm - N/A   Clear
1:35 AM 41.9 °F - 39.6 °F 91% 30.14 in 10.0 mi Calm Calm - N/A   Clear
1:55 AM 41.0 °F - 39.0 °F 93% 30.15 in 10.0 mi Calm Calm - N/A   Scattered Clouds
2:15 AM 40.3 °F - 38.5 °F 93% 30.14 in 10.0 mi Calm Calm - N/A   Scattered Clouds
2:35 AM 39.9 °F - 38.3 °F 94% 30.14 in 4.0 mi Calm Calm - N/A   Clear
2:55 AM 39.9 °F - 38.3 °F 94% 30.14 in 10.0 mi Calm Calm - N/A   Clear
3:15 AM 39.4 °F - 37.9 °F 95% 30.14 in 7.0 mi Calm Calm - N/A   Clear
3:35 AM 39.2 °F - 37.6 °F 94% 30.15 in 10.0 mi Calm Calm - N/A   Clear
3:55 AM 38.3 °F - 36.5 °F 93% 30.15 in 10.0 mi Calm Calm - N/A   Clear
4:15 AM 37.9 °F - 36.3 °F 94% 30.15 in 10.0 mi Calm Calm - N/A   Clear
4:35 AM 38.3 °F - 36.5 °F 93% 30.15 in 10.0 mi Calm Calm - N/A   Clear
4:55 AM 38.3 °F 35.9 °F 36.7 °F 94% 30.15 in 10.0 mi WSW 3.5 mph - N/A   Clear
5:15 AM 38.5 °F 36.1 °F 36.5 °F 93% 30.15 in 10.0 mi WSW 3.5 mph - N/A   Clear
5:35 AM 38.3 °F - 36.5 °F 93% 30.15 in 10.0 mi Calm Calm - N/A   Clear
5:55 AM 38.3 °F - 36.1 °F 92% 30.16 in 10.0 mi Calm Calm - N/A   Clear
6:15 AM 38.3 °F 35.9 °F 36.5 °F 93% 30.16 in 10.0 mi SW 3.5 mph - N/A   Clear
6:35 AM 40.6 °F 38.6 °F 38.3 °F 91% 30.16 in 10.0 mi SW 3.5 mph - N/A   Clear
6:55 AM 42.8 °F 41.1 °F 39.6 °F 88% 30.16 in 10.0 mi SW 3.5 mph - N/A   Clear
7:15 AM 45.1 °F 42.8 °F 40.8 °F 85% 30.17 in 10.0 mi SSW 4.6 mph - N/A   Clear
7:35 AM 47.5 °F - 41.4 °F 79% 30.17 in 10.0 mi SSW 6.9 mph - N/A   Clear
7:55 AM 49.1 °F - 42.1 °F 77% 30.18 in 10.0 mi SW 5.8 mph - N/A   Clear
8:15 AM 50.2 °F - 41.4 °F 72% 30.18 in 10.0 mi SW 8.1 mph - N/A   Clear
8:35 AM 51.6 °F - 41.7 °F 69% 30.18 in 10.0 mi SSW 6.9 mph - N/A   Clear
8:55 AM 52.2 °F - 41.4 °F 67% 30.18 in 10.0 mi SSW 9.2 mph - N/A   Clear
9:15 AM 53.2 °F - 42.4 °F 67% 30.18 in 10.0 mi SSW 6.9 mph - N/A   Clear
9:35 AM 54.1 °F - 41.0 °F 61% 30.18 in 10.0 mi SW 5.8 mph - N/A   Clear
9:55 AM 55.2 °F - 36.5 °F 49% 30.19 in 10.0 mi Calm Calm - N/A   Clear
10:15 AM 56.1 °F - 34.7 °F 45% 30.19 in 10.0 mi SSW 4.6 mph - N/A   Clear
10:35 AM 56.1 °F - 30.2 °F 37% 30.19 in 10.0 mi Calm Calm - N/A   Scattered Clouds
10:55 AM 55.9 °F - 31.5 °F 39% 30.19 in 10.0 mi West 5.8 mph - N/A   Mostly Cloudy
11:15 AM 55.9 °F - 27.0 °F 33% 30.20 in 10.0 mi Calm Calm - N/A   Mostly Cloudy
11:35 AM 57.0 °F - 30.9 °F 37% 30.20 in 10.0 mi NNW 5.8 mph - N/A   Overcast
11:55 AM 57.2 °F - 32.0 °F 38% 30.20 in 10.0 mi Calm Calm - N/A   Overcast
12:15 PM 57.6 °F - 31.1 °F 37% 30.20 in 10.0 mi Calm Calm - N/A   Mostly Cloudy
12:35 PM 58.3 °F - 33.1 °F 39% 30.19 in 10.0 mi SW 3.5 mph - N/A   Mostly Cloudy
12:55 PM 59.4 °F - 30.6 °F 34% 30.19 in 10.0 mi WNW 3.5 mph - N/A   Mostly Cloudy
1:15 PM 59.7 °F - 32.4 °F 36% 30.19 in 10.0 mi NW 6.9 mph - N/A   Overcast
1:35 PM 59.9 °F - 32.4 °F 35% 30.19 in 10.0 mi WNW 6.9 mph - N/A   Mostly Cloudy
1:55 PM 59.2 °F - 33.1 °F 37% 30.19 in 10.0 mi Calm Calm - N/A   Mostly Cloudy
2:15 PM 59.4 °F - 33.1 °F 37% 30.19 in 10.0 mi SW 5.8 mph - N/A   Overcast
2:35 PM 60.8 °F - 33.8 °F 36% 30.18 in 10.0 mi West 8.1 mph - N/A   Overcast
2:55 PM 60.6 °F - 31.8 °F 34% 30.18 in 10.0 mi West 4.6 mph - N/A   Mostly Cloudy
3:15 PM 61.2 °F - 32.2 °F 34% 30.18 in 10.0 mi NW 4.6 mph - N/A   Mostly Cloudy
3:35 PM 61.0 °F - 33.3 °F 35% 30.17 in 10.0 mi South 4.6 mph - N/A   Scattered Clouds
3:55 PM 61.0 °F - 33.3 °F 35% 30.16 in 10.0 mi Calm Calm - N/A   Scattered Clouds
4:15 PM 59.5 °F - 31.6 °F 35% 30.16 in 10.0 mi Calm Calm - N/A   Clear
4:35 PM 61.3 °F - 33.3 °F 35% 30.16 in 10.0 mi South 3.5 mph - N/A   Scattered Clouds
4:55 PM 61.2 °F - 32.0 °F 33% 30.16 in 10.0 mi Calm Calm - N/A   Scattered Clouds
5:15 PM 61.3 °F - 34.2 °F 36% 30.16 in 10.0 mi SSW 3.5 mph - N/A   Clear
5:35 PM 60.8 °F - 32.4 °F 34% 30.16 in 10.0 mi Calm Calm - N/A   Clear
5:55 PM 59.9 °F - 33.4 °F 37% 30.16 in 10.0 mi Calm Calm - N/A   Clear
6:15 PM 59.9 °F - 32.2 °F 35% 30.16 in 10.0 mi Calm Calm - N/A   Scattered Clouds
6:35 PM 60.1 °F - 32.4 °F 35% 30.16 in 10.0 mi Calm Calm - N/A   Mostly Cloudy
6:55 PM 61.0 °F - 32.5 °F 34% 30.16 in 10.0 mi Calm Calm - N/A   Scattered Clouds
7:15 PM 61.2 °F - 32.4 °F 34% 30.17 in 10.0 mi Calm Calm - N/A   Clear
7:35 PM 60.3 °F - 37.2 °F 42% 30.17 in 10.0 mi Calm Calm - N/A   Clear
7:55 PM 57.7 °F - 41.7 °F 55% 30.18 in 10.0 mi Calm Calm - N/A   Scattered Clouds
8:15 PM 55.8 °F - 42.6 °F 61% 30.18 in 10.0 mi Calm Calm - N/A   Clear
8:35 PM 54.7 °F - 40.3 °F 58% 30.19 in 10.0 mi Calm Calm - N/A   Clear
8:55 PM 53.4 °F - 38.7 °F 57% 30.19 in 10.0 mi Calm Calm - N/A   Clear
9:15 PM 52.5 °F - 40.3 °F 63% 30.20 in 10.0 mi Calm Calm - N/A   Clear
9:35 PM 51.6 °F - 41.2 °F 68% 30.20 in 10.0 mi Calm Calm - N/A   Clear
9:55 PM 50.4 °F - 41.5 °F 72% 30.21 in 10.0 mi Calm Calm - N/A   Clear
10:15 PM 48.9 °F - 41.4 °F 75% 30.21 in 10.0 mi Calm Calm - N/A   Clear
10:35 PM 49.5 °F - 41.9 °F 75% 30.22 in 10.0 mi Calm Calm - N/A   Clear
10:55 PM 46.4 °F - 41.0 °F 81% 30.22 in 10.0 mi Calm Calm - N/A   Clear
11:15 PM 48.6 °F - 39.6 °F 71% 30.22 in 10.0 mi Calm Calm - N/A   Clear
11:35 PM 49.5 °F - 37.6 °F 64% 30.22 in 10.0 mi Calm Calm - N/A   Clear
11:55 PM 47.7 °F - 39.2 °F 72% 30.22 in 10.0 mi Calm Calm - N/A   Clear